Flag for U.S.A. Weather past 2 weeks in Hialeah, Florida, U.S.A.

Now
69 °F

Mostly cloudy.


Feels Like: 69 °F
Forecast: 67 / 78 °F
Wind: 7 mph from Northwest

Location: Opa Locka Airport

Current Time: Dec 26, 2014 at 10:55:32 AM

Latest Report: Dec 26, 2014 at 9:53 AM


Visibility: 10 mi

Pressure: 30.20 "Hg

Humidity: 84%

Dew point: 64 °F

Location of HialeahLocation

Historic Weather in Hialeah — Graph

°F

Hialeah temperature yesterday

Maximum temperature yesterday: 77 °F (at 12:53 AM)
Minimum temperature yesterday: 67 °F (at 5:53 AM)
Average temperature yesterday: 70 °F

Past Weeks' High & Low Weather Summary

 TemperatureHumidityPressure
High84 °F (Dec 23, 12:02 PM)100% (Dec 20, 5:53 AM)30.25 "Hg (Dec 20, 5:53 AM)
Low52 °F (Dec 12, 3:53 AM)33% (Dec 13, 1:53 PM)29.92 "Hg (Dec 23, 3:53 PM)
Average68 °F73%30.09 "Hg
* Reported Dec 11 9:53 AM — Dec 26 9:53 AM, Hialeah, Weather by CustomWeather, © 2014

Note: Actual official high and low records may vary slightly from our data, if they occured in-between our weather recording intervals... More about our weather records

Advertising

Hialeah weather history for previous 24 hours

 ConditionsComfort  
Time TempWeatherWind HumidityBarometerVisibility
9:53 AM
Dec 26
69 °FMostly cloudy.7 mph84%30.20 "Hg10 mi
9:01 AM68 °FMostly cloudy.6 mph84%30.19 "Hg10 mi
8:01 AM66 °FMore clouds than sun.6 mph90%30.17 "Hg10 mi
6:53 AM66 °FLight rain. Overcast.5 mph90%30.16 "Hg7 mi
5:53 AM67 °FOvercast.5 mph81%30.14 "Hg10 mi
4:53 AM67 °FOvercast.7 mph76%30.14 "Hg10 mi
3:53 AM67 °FMostly cloudy.7 mph76%30.14 "Hg10 mi
3:04 AM67 °FMostly cloudy.7 mph73%30.15 "Hg10 mi
2:53 AM67 °FMostly cloudy.8 mph76%30.15 "Hg10 mi
1:53 AM70 °FOvercast.6 mph71%30.15 "Hg10 mi
12:53 AM70 °FMostly cloudy.5 mph68%30.16 "Hg10 mi
11:53 PM
Dec 25
70 °FOvercast.5 mph68%30.16 "Hg10 mi
10:53 PM70 °FOvercast.No wind66%30.17 "Hg10 mi
9:53 PM70 °FOvercast.5 mph66%30.18 "Hg10 mi
8:53 PM70 °FMostly cloudy.7 mph64%30.18 "Hg10 mi
7:53 PM70 °FOvercast.6 mph61%30.18 "Hg10 mi
6:53 PM70 °FOvercast.9 mph57%30.17 "Hg10 mi
5:53 PM70 °FOvercast.10 mph55%30.16 "Hg10 mi
4:53 PM71 °FOvercast.9 mph63%30.15 "Hg10 mi
3:53 PM72 °FOvercast.10 mph64%30.14 "Hg10 mi
2:53 PM71 °FMostly cloudy.14 mph68%30.13 "Hg10 mi
1:53 PM73 °FPassing clouds.10 mph69%30.13 "Hg10 mi
12:53 PM70 °FCloudy.15 mph73%30.14 "Hg10 mi
11:53 AM69 °FOvercast.10 mph79%30.16 "Hg10 mi
10:53 AM69 °FMore clouds than sun.13 mph81%30.17 "Hg10 mi
Weather by CustomWeather, © 2014

See weather overviewHow to use our weather pages